Location: Eastlake (historical)
(39.0077°N, 122.6678°W)
Time: 13:54:08
(UTC+00:00)

CENTAUR R/B - Visible Passes

Search period start: 11 April 2021 00:00
Search period end: 21 April 2021 00:00
Orbit: 742 x 1446 km, 63.4° (Epoch: 31 March)

Date Brightness Start Highest point End Pass type
(mag) Time Alt. Az. Time Alt. Az. Time Alt. Az.
11 Apr 3.2 04:36:23 10° NNW 04:44:43 77° NE 04:48:46 37° SE visible
11 Apr 4.6 06:28:14 10° NW 06:34:59 27° WSW 06:35:58 26° WSW visible
12 Apr 3.5 03:48:10 10° NNW 03:56:12 53° NE 04:02:30 20° ESE visible
12 Apr 4.0 05:39:09 10° NW 05:46:58 43° WSW 05:49:43 34° SSW visible
13 Apr 4.0 03:00:06 10° NNW 03:07:29 36° NE 03:15:28 10° ESE visible
13 Apr 3.5 04:50:30 10° NW 04:58:49 66° WSW 05:03:30 31° S visible
13 Apr 5.3 06:44:53 10° WNW 06:48:25 13° WSW 06:50:44 12° WSW visible
14 Apr 3.3 04:02:06 10° NNW 04:10:28 84° ENE 04:17:23 19° SE visible
14 Apr 4.9 05:54:15 10° WNW 06:00:37 24° WSW 06:04:36 17° SW visible
15 Apr 3.5 03:13:52 10° NNW 03:21:59 58° NE 03:30:43 10° SE visible
15 Apr 4.3 05:05:01 10° NW 05:12:39 38° WSW 05:18:34 18° SSW visible
16 Apr 3.7 04:16:17 10° NW 04:24:31 60° WSW 04:32:36 12° SSE visible
16 Apr 5.5 06:11:55 10° W 06:14:00 11° W 06:16:05 10° WSW visible
17 Apr 3.4 03:27:50 10° NNW 03:36:14 89° SW 03:45:12 10° SSE visible
17 Apr 5.1 05:20:20 10° WNW 05:26:14 21° WSW 05:32:19 10° SSW visible
18 Apr 4.6 04:30:54 10° NW 04:38:19 34° WSW 04:46:02 10° S visible
19 Apr 4.0 03:42:04 10° NW 03:50:13 54° WSW 03:58:48 10° S visible
20 Apr 5.4 04:46:29 10° WNW 04:51:51 18° WSW 04:57:21 10° SW visible
